This is the latest recevied weather packets stored in our database for station/object N3WMC. If no packets are shown the sender has not sent any weather packets the latest 10 day(s).
| Time | Temp. | Humidity | Pressure | Rain* | Wind** | Luminosity | Snow |
|---|---|---|---|---|---|---|---|
| 1778194979 | 15° C | 37% | 1011.3 hPa | 0 mm | - | 72 W/m² | - |
| 1778194679 | 14.44° C | 38% | 1011.4 hPa | 0 mm | - | 60 W/m² | - |
| 1778194375 | 15° C | 37% | 1011.4 hPa | 0 mm | - | 47 W/m² | - |
| 1778194071 | 15° C | 35% | 1011.1 hPa | 0 mm | - | 110 W/m² | - |
| 1778193768 | 15° C | 35% | 1011.2 hPa | 0 mm | - | 60 W/m² | - |
| 1778193464 | 16.11° C | 35% | 1011.3 hPa | 0 mm | - | 70 W/m² | - |
| 1778193160 | 15.56° C | 35% | 1011.1 hPa | 0 mm | - | 167 W/m² | - |
| 1778192858 | 15.56° C | 36% | 1011.1 hPa | 0 mm | - | 166 W/m² | - |
| 1778192553 | 14.44° C | 37% | 1010.9 hPa | 0 mm | - | 108 W/m² | - |
| 1778192250 | 14.44° C | 37% | 1010.9 hPa | 0 mm | - | 74 W/m² | - |
| 1778191946 | 14.44° C | 36% | 1010.9 hPa | 0 mm | - | 67 W/m² | - |
| 1778191643 | 15.56° C | 37% | 1010.8 hPa | 0 mm | - | 76 W/m² | - |
| 1778191341 | 15° C | 37% | 1010.9 hPa | 0 mm | - | 97 W/m² | - |
| 1778191037 | 15.56° C | 37% | 1010.6 hPa | 0 mm | - | 124 W/m² | - |
| 1778190735 | 15.56° C | 38% | 1010.7 hPa | 0 mm | - | 79 W/m² | - |
| 1778190432 | 16.11° C | 36% | 1010.8 hPa | 0 mm | - | 104 W/m² | - |
| 1778190129 | 15.56° C | 37% | 1010.8 hPa | 0 mm | - | 264 W/m² | - |
| 1778189824 | 15° C | 37% | 1010.6 hPa | 0 mm | - | 72 W/m² | - |
| 1778189522 | 15.56° C | 37% | 1010.6 hPa | 0 mm | - | 159 W/m² | - |
| 1778189217 | 15.56° C | 37% | 1010.9 hPa | 0 mm | - | 197 W/m² | - |
| 1778188914 | 15.56° C | 36% | 1010.7 hPa | 0 mm | - | 247 W/m² | - |
| 1778188611 | 15.56° C | 36% | 1010.9 hPa | 0 mm | - | 181 W/m² | - |
| 1778188306 | 15.56° C | 38% | 1010.5 hPa | 0 mm | - | 148 W/m² | - |
| 1778188005 | 15.56° C | 36% | 1010.4 hPa | 0 mm | - | 128 W/m² | - |
| 1778187701 | 16.11° C | 36% | 1010.3 hPa | 0 mm | - | 122 W/m² | - |
* Rain latest hour (hover to see other rain measurements)
** Current wind speed in m/s (hover to see current wind gust speed)